Location: Basse Occidentale du Courleau
(48.3833°N, 4.8333°W)
Time: 04:31:58
(UTC+00:00)

Cosmos 2360 Rocket - Pass Details

Date: 05 July 2020
Orbit: 832 x 846 km, 71.0° (Epoch: 11 August)

Event Time Altitude Azimuth Distance (km) Brightness Sun altitude
Rises 22:15:18 0° 231° (SW) 3,381 5.2 -13.3°
Reaches altitude 10° 22:17:53 10° 239° (WSW) 2,453 4.6 -13.5°
Maximum altitude 22:23:09 39° 308° (NW) 1,239 3.7 -14.0°
Drops below altitude 10° 22:28:28 10° 17° (NNE) 2,475 5.3 -14.4°
Sets 22:31:06 0° 25° (NNE) 3,415 5.9 -14.6°
